SUR4015 SABE-SAAR

Flight info

Callsign SUR4015
Flight time 0h 47m
Altitude 120
Route ATOV4B ATOVO W5 PEDRO ESKON
Aircraft B350/M-SDE3L/L

Departure

Time 2026-04-22 16:32
Airport Aeroparque Jorge Newbery (SABE)

Arrival

Time 2026-04-22 17:20
Airport Rosario Islas Malvinas International Airport (SAAR)
Time Latitude Longitude Altitude Speed Heading
2026-04-22 16:22 -34.56155 -58.41564 23 ft 0 kts 120°
2026-04-22 16:27 -34.56155 -58.41563 23 ft 0 kts 120°
2026-04-22 16:29 -34.56155 -58.41562 23 ft 0 kts 120°
2026-04-22 16:30 -34.56159 -58.41524 23 ft 0 kts 91°
2026-04-22 16:30 -34.56159 -58.41520 23 ft 1 kts 91°
2026-04-22 16:30 -34.56159 -58.41510 23 ft 2 kts 88°
2026-04-22 16:31 -34.56118 -58.41450 23 ft 13 kts 29°
2026-04-22 16:31 -34.56072 -58.41416 23 ft 6 kts 39°
2026-04-22 16:31 -34.56063 -58.41408 23 ft 1 kts 34°
2026-04-22 16:31 -34.56035 -58.41390 23 ft 4 kts 10°
2026-04-22 16:32 -34.56010 -58.41398 23 ft 2 kts 322°
2026-04-22 16:32 -34.55899 -58.41624 23 ft 76 kts 301°
2026-04-22 16:32 -34.55493 -58.42354 370 ft 104 kts 303°
2026-04-22 16:32 -34.55082 -58.43102 1003 ft 105 kts 311°
2026-04-22 16:33 -34.54679 -58.43735 1179 ft 95 kts 307°
2026-04-22 16:33 -34.54232 -58.44391 1131 ft 109 kts 307°
2026-04-22 16:33 -34.53830 -58.44997 1574 ft 88 kts 305°
2026-04-22 16:33 -34.53345 -58.45783 1244 ft 136 kts 306°
2026-04-22 16:34 -34.52717 -58.46824 1203 ft 155 kts 303°
2026-04-22 16:34 -34.52057 -58.47865 1439 ft 158 kts 314°
2026-04-22 16:34 -34.51034 -58.48300 1717 ft 164 kts
2026-04-22 16:34 -34.49941 -58.47932 2042 ft 161 kts 12°
2026-04-22 16:35 -34.48890 -58.48057 2276 ft 148 kts 327°
2026-04-22 16:35 -34.48117 -58.48717 2723 ft 131 kts 296°
2026-04-22 16:35 -34.47781 -58.49694 3128 ft 126 kts 279°
2026-04-22 16:35 -34.47512 -58.50752 3460 ft 137 kts 279°
2026-04-22 16:36 -34.47220 -58.51889 3781 ft 146 kts 280°
2026-04-22 16:36 -34.46904 -58.53094 4096 ft 153 kts 281°
2026-04-22 16:36 -34.46570 -58.54337 4405 ft 159 kts 282°
2026-04-22 16:36 -34.46177 -58.55622 4714 ft 166 kts 287°
2026-04-22 16:37 -34.45647 -58.56891 5021 ft 172 kts 292°
2026-04-22 16:37 -34.44990 -58.58169 5296 ft 188 kts 303°
2026-04-22 16:37 -34.44202 -58.59509 5710 ft 205 kts 309°
2026-04-22 16:37 -34.43288 -58.60938 5934 ft 222 kts 309°
2026-04-22 16:38 -34.42318 -58.62409 6249 ft 225 kts 310°
2026-04-22 16:38 -34.41321 -58.63901 6553 ft 228 kts 310°
2026-04-22 16:38 -34.40327 -58.65376 6851 ft 230 kts 310°
2026-04-22 16:38 -34.39304 -58.66885 7153 ft 232 kts 311°
2026-04-22 16:39 -34.38274 -58.68398 7455 ft 233 kts 311°
2026-04-22 16:39 -34.37238 -58.69917 7756 ft 234 kts 311°
2026-04-22 16:39 -34.36179 -58.71465 7860 ft 244 kts 311°
2026-04-22 16:39 -34.35073 -58.73079 7916 ft 253 kts 311°
2026-04-22 16:40 -34.33934 -58.74740 7969 ft 259 kts 311°
2026-04-22 16:40 -34.32770 -58.76436 7996 ft 265 kts 311°
2026-04-22 16:40 -34.30380 -58.79918 8004 ft 273 kts 311°
2026-04-22 16:41 -34.29161 -58.81691 8005 ft 275 kts 311°
2026-04-22 16:41 -34.27944 -58.83462 8005 ft 277 kts 311°
2026-04-22 16:41 -34.26706 -58.85262 8009 ft 279 kts 311°
2026-04-22 16:41 -34.25455 -58.87080 8011 ft 281 kts 311°
2026-04-22 16:42 -34.24200 -58.88902 8011 ft 282 kts 311°
2026-04-22 16:42 -34.22960 -58.90702 8011 ft 283 kts 311°
2026-04-22 16:42 -34.21701 -58.92530 8011 ft 283 kts 311°
2026-04-22 16:42 -34.20438 -58.94360 8010 ft 284 kts 311°
2026-04-22 16:43 -34.19171 -58.96196 8010 ft 284 kts 311°
2026-04-22 16:43 -34.17905 -58.98030 8010 ft 284 kts 311°
2026-04-22 16:43 -34.16637 -58.99866 8010 ft 284 kts 311°
2026-04-22 16:43 -34.15371 -59.01697 8010 ft 284 kts 311°
2026-04-22 16:44 -34.14101 -59.03534 8010 ft 284 kts 311°
2026-04-22 16:44 -34.13264 -59.04744 8010 ft 284 kts 311°
2026-04-22 16:44 -34.11580 -59.07176 8010 ft 284 kts 311°
2026-04-22 16:44 -34.10310 -59.09009 8012 ft 285 kts 311°
2026-04-22 16:45 -34.09037 -59.10845 8012 ft 285 kts 311°
2026-04-22 16:45 -34.07766 -59.12678 8013 ft 287 kts 311°
2026-04-22 16:45 -34.06478 -59.14538 8013 ft 289 kts 311°
2026-04-22 16:45 -34.05621 -59.15776 8013 ft 290 kts 311°
2026-04-22 16:46 -34.04325 -59.17647 8013 ft 291 kts 311°
2026-04-22 16:46 -34.03024 -59.19527 8013 ft 291 kts 311°
2026-04-22 16:46 -34.01723 -59.21404 8013 ft 291 kts 311°
2026-04-22 16:46 -34.00423 -59.23280 8013 ft 291 kts 311°
2026-04-22 16:47 -33.99125 -59.25151 8013 ft 291 kts 311°
2026-04-22 16:47 -33.97821 -59.27030 8012 ft 291 kts 311°
2026-04-22 16:47 -33.96520 -59.28902 8012 ft 291 kts 311°
2026-04-22 16:47 -33.95234 -59.30752 8016 ft 292 kts 310°
2026-04-22 16:48 -33.93924 -59.32635 8023 ft 293 kts 310°
2026-04-22 16:48 -33.92616 -59.34511 8027 ft 294 kts 310°
2026-04-22 16:48 -33.91296 -59.36388 8049 ft 293 kts 307°
2026-04-22 16:48 -33.89986 -59.38268 8055 ft 293 kts 307°
2026-04-22 16:49 -33.88675 -59.40157 8056 ft 293 kts 307°
2026-04-22 16:49 -33.87368 -59.42044 8055 ft 294 kts 308°
2026-04-22 16:49 -33.86056 -59.43935 8053 ft 295 kts 307°
2026-04-22 16:49 -33.84737 -59.45833 8053 ft 295 kts 308°
2026-04-22 16:50 -33.83417 -59.47728 8052 ft 295 kts 308°
2026-04-22 16:50 -33.82114 -59.49596 8049 ft 296 kts 308°
2026-04-22 16:50 -33.80788 -59.51495 8047 ft 296 kts 308°
2026-04-22 16:50 -33.79455 -59.53400 8048 ft 296 kts 307°
2026-04-22 16:51 -33.78131 -59.55288 8060 ft 295 kts 307°
2026-04-22 16:51 -33.76808 -59.57173 8064 ft 293 kts 307°
2026-04-22 16:51 -33.75495 -59.59045 8067 ft 292 kts 307°
2026-04-22 16:51 -33.74187 -59.60907 8110 ft 288 kts 307°
2026-04-22 16:52 -33.72899 -59.62739 8099 ft 286 kts 307°
2026-04-22 16:52 -33.71616 -59.64564 8094 ft 285 kts 307°
2026-04-22 16:52 -33.70355 -59.66357 8090 ft 284 kts 307°
2026-04-22 16:52 -33.69080 -59.68171 8085 ft 284 kts 307°
2026-04-22 16:53 -33.67804 -59.69978 8097 ft 283 kts 307°
2026-04-22 16:53 -33.66534 -59.71789 8092 ft 283 kts 307°
2026-04-22 16:53 -33.65258 -59.73603 8089 ft 283 kts 307°
2026-04-22 16:53 -33.63985 -59.75408 8088 ft 284 kts 307°
2026-04-22 16:54 -33.62709 -59.77215 8095 ft 283 kts 308°
2026-04-22 16:54 -33.61437 -59.79018 8097 ft 281 kts 307°
2026-04-22 16:54 -33.60200 -59.80793 8100 ft 280 kts 307°
2026-04-22 16:54 -33.58937 -59.82577 8103 ft 279 kts 307°
2026-04-22 16:55 -33.57673 -59.84359 8029 ft 281 kts 307°
2026-04-22 16:55 -33.56413 -59.86133 8014 ft 279 kts 308°
2026-04-22 16:55 -33.55160 -59.87881 8010 ft 270 kts 308°
2026-04-22 16:55 -33.53966 -59.89555 8000 ft 258 kts 307°
2026-04-22 16:56 -33.52838 -59.91146 8000 ft 243 kts 307°
2026-04-22 16:56 -33.51763 -59.92653 7998 ft 233 kts 307°
2026-04-22 16:56 -33.50737 -59.94103 7999 ft 225 kts 307°
2026-04-22 16:56 -33.49744 -59.95514 8007 ft 218 kts 307°
2026-04-22 16:57 -33.48787 -59.96866 8006 ft 213 kts 307°
2026-04-22 16:57 -33.47838 -59.98214 8003 ft 210 kts 307°
2026-04-22 16:57 -33.46893 -59.99540 8002 ft 209 kts 307°
2026-04-22 16:57 -33.45958 -60.00854 8017 ft 205 kts 309°
2026-04-22 16:58 -33.45352 -60.01710 8032 ft 202 kts 309°
2026-04-22 16:58 -33.44139 -60.03410 8035 ft 199 kts 310°
2026-04-22 16:58 -33.43244 -60.04665 8038 ft 197 kts 310°
2026-04-22 16:58 -33.42358 -60.05908 8040 ft 196 kts 310°
2026-04-22 16:59 -33.41481 -60.07147 8042 ft 194 kts 310°
2026-04-22 16:59 -33.40618 -60.08364 8044 ft 194 kts 310°
2026-04-22 16:59 -33.39748 -60.09596 8045 ft 193 kts 311°
2026-04-22 16:59 -33.38886 -60.10817 8053 ft 192 kts 311°
2026-04-22 17:00 -33.38018 -60.12030 8049 ft 192 kts 312°
2026-04-22 17:00 -33.36277 -60.14447 8049 ft 191 kts 311°
2026-04-22 17:00 -33.35414 -60.15663 8050 ft 191 kts 311°
2026-04-22 17:01 -33.34559 -60.16864 8050 ft 191 kts 311°
2026-04-22 17:01 -33.33702 -60.18079 8045 ft 191 kts 311°
2026-04-22 17:01 -33.32835 -60.19282 8050 ft 190 kts 311°
2026-04-22 17:01 -33.31978 -60.20492 8046 ft 190 kts 311°
2026-04-22 17:02 -33.31122 -60.21698 8049 ft 190 kts 311°
2026-04-22 17:02 -33.30267 -60.22908 8046 ft 190 kts 310°
2026-04-22 17:02 -33.29405 -60.24108 8050 ft 190 kts 311°
2026-04-22 17:02 -33.28556 -60.25292 8047 ft 190 kts 311°
2026-04-22 17:03 -33.27698 -60.26490 8045 ft 190 kts 311°
2026-04-22 17:03 -33.26836 -60.27688 8045 ft 190 kts 312°
2026-04-22 17:03 -33.25975 -60.28883 8047 ft 190 kts 312°
2026-04-22 17:03 -33.25118 -60.30087 8048 ft 190 kts 311°
2026-04-22 17:04 -33.24260 -60.31286 8045 ft 190 kts 311°
2026-04-22 17:04 -33.23316 -60.32368 8044 ft 189 kts 322°
2026-04-22 17:04 -33.22239 -60.33281 8052 ft 190 kts 326°
2026-04-22 17:04 -33.21119 -60.34135 8049 ft 192 kts 327°
2026-04-22 17:05 -33.20002 -60.35030 8048 ft 194 kts 325°
2026-04-22 17:05 -33.18887 -60.35955 8049 ft 196 kts 325°
2026-04-22 17:05 -33.17734 -60.36831 8047 ft 197 kts 331°
2026-04-22 17:05 -33.16500 -60.37552 8047 ft 198 kts 335°
2026-04-22 17:06 -33.15204 -60.38128 8049 ft 199 kts 341°
2026-04-22 17:06 -33.13875 -60.38614 8049 ft 199 kts 341°
2026-04-22 17:06 -33.12574 -60.39186 8048 ft 199 kts 335°
2026-04-22 17:06 -33.11365 -60.39975 8047 ft 196 kts 325°
2026-04-22 17:07 -33.10323 -60.41026 7913 ft 199 kts 317°
2026-04-22 17:07 -33.09338 -60.42205 7697 ft 203 kts 316°
2026-04-22 17:07 -33.08292 -60.43339 7479 ft 207 kts 322°
2026-04-22 17:07 -33.07126 -60.44377 7248 ft 210 kts 327°
2026-04-22 17:08 -33.05828 -60.45205 7030 ft 213 kts 336°
2026-04-22 17:08 -33.04426 -60.45799 6811 ft 215 kts 342°
2026-04-22 17:08 -33.02918 -60.45784 6468 ft 233 kts 20°
2026-04-22 17:08 -33.01629 -60.44630 6362 ft 230 kts 38°
2026-04-22 17:09 -33.00398 -60.43408 6132 ft 230 kts 34°
2026-04-22 17:09 -32.99080 -60.42340 5910 ft 228 kts 27°
2026-04-22 17:09 -32.98155 -60.41749 5764 ft 228 kts 24°
2026-04-22 17:09 -32.96219 -60.40735 5469 ft 227 kts 18°
2026-04-22 17:10 -32.94721 -60.40161 5248 ft 226 kts 12°
2026-04-22 17:10 -32.93180 -60.39829 5031 ft 224 kts
2026-04-22 17:10 -32.91642 -60.39772 4812 ft 224 kts 354°
2026-04-22 17:10 -32.90095 -60.39996 4585 ft 224 kts 347°
2026-04-22 17:11 -32.88582 -60.40430 4358 ft 224 kts 341°
2026-04-22 17:11 -32.87088 -60.40971 4183 ft 223 kts 342°
2026-04-22 17:11 -32.85611 -60.41452 4135 ft 217 kts 342°
2026-04-22 17:11 -32.84175 -60.41956 4082 ft 213 kts 339°
2026-04-22 17:12 -32.82795 -60.42538 4053 ft 208 kts 336°
2026-04-22 17:12 -32.81490 -60.43240 4050 ft 203 kts 331°
2026-04-22 17:12 -32.80834 -60.43607 4047 ft 202 kts 331°
2026-04-22 17:12 -32.79799 -60.44652 4051 ft 193 kts 298°
2026-04-22 17:13 -32.79471 -60.46132 4065 ft 187 kts 273°
2026-04-22 17:13 -32.79429 -60.47707 4060 ft 196 kts 270°
2026-04-22 17:13 -32.79390 -60.49355 4053 ft 203 kts 271°
2026-04-22 17:13 -32.79329 -60.51061 4051 ft 209 kts 272°
2026-04-22 17:14 -32.79202 -60.52801 4050 ft 213 kts 276°
2026-04-22 17:14 -32.78972 -60.54549 4049 ft 216 kts 278°
2026-04-22 17:14 -32.78702 -60.56350 3837 ft 227 kts 278°
2026-04-22 17:14 -32.78417 -60.58186 3562 ft 224 kts 278°
2026-04-22 17:15 -32.78229 -60.59387 3379 ft 223 kts 278°
2026-04-22 17:15 -32.77853 -60.61763 3174 ft 214 kts 278°
2026-04-22 17:15 -32.77580 -60.63483 3062 ft 209 kts 278°
2026-04-22 17:15 -32.77313 -60.65180 2856 ft 210 kts 277°
2026-04-22 17:16 -32.77039 -60.66896 2604 ft 213 kts 278°
2026-04-22 17:16 -32.76765 -60.68643 2354 ft 220 kts 279°
2026-04-22 17:16 -32.76480 -60.70501 2180 ft 232 kts 281°
2026-04-22 17:16 -32.76518 -60.72403 2138 ft 229 kts 259°
2026-04-22 17:17 -32.77043 -60.74167 2089 ft 225 kts 240°
2026-04-22 17:17 -32.78090 -60.75498 2124 ft 222 kts 213°
2026-04-22 17:17 -32.79533 -60.76124 2066 ft 219 kts 191°
2026-04-22 17:17 -32.81028 -60.76419 2090 ft 220 kts 191°
2026-04-22 17:18 -32.82538 -60.76722 2057 ft 219 kts 191°
2026-04-22 17:18 -32.84061 -60.77044 1619 ft 236 kts 189°
2026-04-22 17:18 -32.85677 -60.77392 1149 ft 217 kts 192°
2026-04-22 17:18 -32.86983 -60.77681 798 ft 176 kts 192°
2026-04-22 17:19 -32.89274 -60.78185 114 ft 158 kts 191°
2026-04-22 17:19 -32.90819 -60.78558 90 ft 64 kts 190°
2026-04-22 17:20 -32.91475 -60.78699 90 ft 38 kts 188°
2026-04-22 17:20 -32.91707 -60.78674 90 ft 13 kts 159°
2026-04-22 17:21 -32.91753 -60.78664 90 ft 0 kts 171°